GORIZONT 28 [-]

Last updated on Tue Jun 27 2023 00:03:00 GMT+0000 (Coordinated Universal Time)

1 22880U 93069A 23177.47757758 -.00000097 00000+0 00000+0 0 9992 2 22880 14.5643 356.0573 0035781 139.7287 218.3578 0.99648631108318
UTC large
Height (km)
Speed (km/s)
/
Latitude / Longitude
Inclination (degrees)
Orbital Period (minutes)
Azimuth
Elevation
Range (km)
Doppler Factor

Next 0 passes for location: London (51.5072 / 0.1276)

Sorry there are no passes over London.